Total_Precipitation_Accumulation
0.67 0.64 0.61 0.69 0.79 1.04 1.23 1.13 0.87 0.78 0.76 0.72 0.65 0.69 0.79 0.84 0.93 1.02 1.06 1.07 1.05 1.08 1.00 0.97 1.05 1.08 1.21 1.20 1.17 1.08 0.97 0.87 0.80 0.67 0.47 0.28 0.19 0.14 0.11 0.06 0.03 0.02 0.02
0.54 0.52 0.55 0.60 0.70 0.79 0.83 0.82 0.71 0.57 0.51 0.51 0.54 0.54 0.62 0.70 0.75 0.76 0.80 0.83 0.83 0.86 0.82 0.76 0.79 0.86 0.93 1.07 1.13 1.11 1.06 0.94 0.89 0.81 0.60 0.41 0.29 0.21 0.15 0.10 0.06 0.04 0.03
0.52 0.56 0.58 0.57 0.58 0.54 0.49 0.45 0.45 0.45 0.44 0.45 0.53 0.53 0.56 0.62 0.72 0.69 0.68 0.68 0.68 0.65 0.65 0.64 0.64 0.70 0.83 0.91 0.88 0.95 1.01 1.04 1.01 0.93 0.76 0.56 0.41 0.28 0.19 0.14 0.09 0.08 0.07
0.68 0.74 0.75 0.71 0.66 0.62 0.55 0.47 0.43 0.45 0.47 0.51 0.58 0.61 0.59 0.65 0.66 0.63 0.63 0.64 0.59 0.53 0.51 0.48 0.46 0.49 0.60 0.79 0.78 0.77 0.86 0.95 1.07 1.06 0.92 0.65 0.49 0.37 0.27 0.22 0.21 0.18 0.14
0.61 0.73 0.76 0.74 0.71 0.67 0.58 0.49 0.47 0.44 0.42 0.47 0.53 0.63 0.66 0.67 0.61 0.65 0.65 0.65 0.60 0.50 0.46 0.45 0.44 0.49 0.62 0.66 0.64 0.74 0.85 0.87 0.95 1.00 0.98 0.83 0.63 0.47 0.34 0.30 0.28 0.28 0.24
0.51 0.61 0.76 0.80 0.70 0.63 0.55 0.49 0.47 0.45 0.41 0.42 0.47 0.59 0.67 0.58 0.83 0.85 0.67 0.60 0.57 0.48 0.43 0.40 0.36 0.36 0.50 0.70 0.73 0.73 0.79 0.89 0.93 0.92 0.90 0.83 0.73 0.63 0.56 0.48 0.37 0.30 0.28
0.46 0.57 0.76 0.76 0.63 0.57 0.61 0.61 0.54 0.51 0.51 0.50 0.49 0.50 0.55 0.66 0.58 0.44 0.40 0.37 0.46 0.45 0.37 0.31 0.24 0.22 0.29 0.39 0.48 0.50 0.64 0.84 0.95 0.92 0.82 0.80 0.84 0.77 0.65 0.54 0.46 0.39 0.39
0.37 0.45 0.59 0.61 0.57 0.60 0.62 0.58 0.50 0.46 0.46 0.47 0.47 0.48 0.51 0.54 0.41 0.29 0.28 0.24 0.35 0.35 0.29 0.27 0.27 0.25 0.27 0.36 0.45 0.51 0.55 0.65 0.82 0.77 0.69 0.73 0.76 0.72 0.65 0.60 0.59 0.53 0.44
0.25 0.32 0.40 0.43 0.46 0.49 0.49 0.51 0.47 0.43 0.43 0.42 0.44 0.50 0.54 0.49 0.40 0.28 0.24 0.31 0.40 0.33 0.28 0.30 0.30 0.31 0.43 0.46 0.41 0.45 0.56 0.58 0.72 0.76 0.82 0.80 0.65 0.53 0.52 0.55 0.58 0.55 0.51
0.18 0.23 0.30 0.33 0.36 0.39 0.45 0.48 0.48 0.44 0.41 0.39 0.38 0.40 0.45 0.44 0.45 0.26 0.27 0.42 0.47 0.46 0.43 0.38 0.45 0.45 0.52 0.48 0.39 0.48 0.63 0.54 0.49 0.54 0.55 0.53 0.45 0.38 0.41 0.41 0.50 0.55 0.53
0.09 0.14 0.21 0.28 0.35 0.44 0.49 0.49 0.52 0.49 0.43 0.41 0.45 0.42 0.40 0.46 0.52 0.38 0.35 0.41 0.53 0.54 0.52 0.51 0.47 0.49 0.47 0.49 0.48 0.56 0.75 0.64 0.48 0.49 0.53 0.50 0.39 0.33 0.34 0.38 0.43 0.49 0.51
0.06 0.10 0.17 0.25 0.32 0.41 0.49 0.50 0.51 0.51 0.50 0.50 0.50 0.52 0.50 0.47 0.49 0.47 0.40 0.41 0.45 0.49 0.56 0.53 0.50 0.48 0.36 0.38 0.37 0.47 0.71 0.66 0.48 0.49 0.53 0.53 0.47 0.40 0.38 0.36 0.36 0.39 0.41
0.02 0.06 0.11 0.15 0.19 0.24 0.30 0.37 0.44 0.48 0.50 0.50 0.53 0.61 0.62 0.55 0.55 0.60 0.41 0.32 0.32 0.36 0.40 0.48 0.46 0.40 0.30 0.26 0.28 0.34 0.48 0.66 0.62 0.52 0.47 0.45 0.46 0.45 0.42 0.36 0.30 0.29 0.29
0.01 0.03 0.05 0.06 0.07 0.09 0.18 0.27 0.33 0.40 0.45 0.52 0.58 0.67 0.74 0.67 0.59 0.52 0.41 0.33 0.30 0.27 0.24 0.24 0.25 0.27 0.27 0.26 0.24 0.27 0.41 0.59 0.64 0.56 0.47 0.46 0.47 0.44 0.38 0.34 0.32 0.31 0.29
0.01 0.01 0.02 0.04 0.05 0.08 0.14 0.22 0.26 0.34 0.36 0.40 0.50 0.62 0.66 0.64 0.63 0.65 0.61 0.54 0.48 0.44 0.37 0.29 0.25 0.28 0.32 0.34 0.33 0.31 0.36 0.48 0.51 0.48 0.44 0.40 0.41 0.44 0.40 0.33 0.29 0.26 0.25
0.06 0.03 0.02 0.03 0.06 0.08 0.11 0.12 0.12 0.15 0.16 0.19 0.25 0.30 0.34 0.36 0.37 0.34 0.39 0.44 0.42 0.36 0.43 0.50 0.48 0.48 0.46 0.42 0.40 0.32 0.27 0.32 0.40 0.43 0.41 0.37 0.35 0.39 0.41 0.36 0.32 0.30 0.26
0.14 0.11 0.07 0.05 0.05 0.06 0.07 0.09 0.09 0.06 0.05 0.06 0.08 0.13 0.19 0.21 0.20 0.20 0.22 0.29 0.36 0.36 0.46 0.52 0.49 0.43 0.38 0.34 0.33 0.30 0.26 0.26 0.30 0.34 0.35 0.36 0.35 0.38 0.43 0.44 0.40 0.37 0.33
0.03 0.03 0.05 0.08 0.05 0.04 0.07 0.13 0.18 0.20 0.14 0.08 0.03 0.05 0.10 0.14 0.15 0.16 0.18 0.22 0.22 0.26 0.34 0.42 0.39 0.35 0.29 0.26 0.23 0.21 0.21 0.21 0.23 0.26 0.29 0.31 0.36 0.39 0.42 0.46 0.50 0.47 0.44
0.01 0.03 0.09 0.10 0.06 0.05 0.10 0.18 0.20 0.19 0.18 0.12 0.05 0.03 0.04 0.06 0.08 0.09 0.12 0.15 0.14 0.13 0.16 0.24 0.27 0.26 0.22 0.17 0.12 0.10 0.09 0.09 0.11 0.14 0.19 0.24 0.29 0.35 0.40 0.42 0.45 0.49 0.49
0.02 0.02 0.09 0.14 0.08 0.08 0.10 0.10 0.10 0.12 0.10 0.07 0.05 0.05 0.04 0.05 0.06 0.05 0.05 0.07 0.07 0.07 0.09 0.13 0.15 0.17 0.15 0.13 0.10 0.08 0.06 0.07 0.07 0.07 0.11 0.16 0.20 0.24 0.29 0.35 0.41 0.43 0.42
0.06 0.03 0.03 0.14 0.17 0.14 0.12 0.10 0.11 0.13 0.09 0.05 0.03 0.01 0.02 0.05 0.07 0.06 0.04 0.06 0.07 0.08 0.08 0.08 0.09 0.14 0.12 0.11 0.10 0.09 0.07 0.07 0.07 0.07 0.08 0.09 0.12 0.16 0.19 0.21 0.24 0.29 0.34
0.02 0.03 0.04 0.13 0.18 0.14 0.11 0.11 0.12 0.10 0.08 0.05 0.03 0.01 0.02 0.04 0.05 0.06 0.05 0.06 0.07 0.08 0.08 0.06 0.08 0.11 0.12 0.10 0.09 0.10 0.09 0.08 0.07 0.08 0.09 0.10 0.10 0.10 0.10 0.12 0.13 0.15 0.18
0.01 0.02 0.03 0.07 0.08 0.04 0.05 0.08 0.09 0.09 0.06 0.04 0.03 0.02 0.02 0.03 0.04 0.04 0.04 0.07 0.10 0.11 0.08 0.06 0.08 0.12 0.14 0.14 0.12 0.12 0.12 0.12 0.10 0.08 0.08 0.10 0.12 0.12 0.11 0.11 0.11 0.13 0.15
0.01 0.01 0.02 0.04 0.04 0.05 0.07 0.08 0.07 0.06 0.06 0.04 0.03 0.03 0.04 0.05 0.04 0.04 0.05 0.07 0.10 0.11 0.08 0.07 0.07 0.09 0.12 0.15 0.16 0.16 0.15 0.14 0.11 0.08 0.08 0.09 0.10 0.10 0.11 0.11 0.13 0.15 0.17
0.02 0.01 0.02 0.03 0.04 0.05 0.05 0.07 0.07 0.06 0.07 0.06 0.05 0.04 0.04 0.05 0.06 0.04 0.03 0.04 0.06 0.06 0.05 0.05 0.07 0.11 0.13 0.14 0.16 0.18 0.23 0.22 0.16 0.11 0.09 0.09 0.10 0.11 0.13 0.15 0.18 0.20 0.24
0.02 0.01 0.02 0.04 0.05 0.05 0.06 0.07 0.06 0.06 0.07 0.06 0.06 0.06 0.06 0.06 0.05 0.04 0.04 0.04 0.04 0.04 0.07 0.07 0.08 0.11 0.13 0.14 0.12 0.12 0.14 0.14 0.13 0.13 0.10 0.09 0.09 0.11 0.14 0.17 0.21 0.26 0.30